STARLINK-30516, 57984

Orbit data source: Space-Track

STARLINK-30516, 57984 is a payload satellite owned by SpaceX/Seattle (US) in LEO that was launched on Sat, 30 Sep 2023 UTC via an FALCON 9 launch vehicle from the Air Force Eastern Test Range (AFETR). Payload-class satellites include a variety of spacecraft equipped with specific instruments for various scientific and technological missions. These include communications satellites like Starlink; space stations such as the ISS; scientific satellites like the Hubble; Earth observation satellites from companies like Planet Labs, Umbra, and HawkEye 360; GPS; miniature CubeSats for education and research; and military/defense satellites.

Loading next visibility...
Identifier
57984, 2023-151W
Orbit
LEO
Country
Flag of USUS
Related business
Manufacturer
SpaceX/Seattle
Mission
Operational Commercial Communications
Bus & Motor
STARLINK V2M, Unknown motor
Mass
730 kg wet, ~700 kg dry
Launch date (UTC)
2023-09-30 (3 years ago)
Launch vehicle
FALCON 9
Launch site
Air Force Eastern Test Range (AFETR)
Object type
Payload
Rocket body
Debris
Shape & HBR
Box + 2 Pan, 17.7 m
Radar Cross Section
33.884 m², Large (>1 m²)

Expand to show TLE details & history
Last TLE update: 12 hours ago

TLE from 12 hours ago
0 STARLINK-30516
1 57984U 23151W   26130.08760988  .00007337  00000-0  27598-3 0  9997
2 57984  43.0037   7.3252 0001549 279.1340  80.9336 15.27568551144942
Epoch: 2026-05-10T02:06Z
TLE epoch observation values (Epoch: 2026-05-10T02:06:09.493Z)
Latitude
-0.00005°
Longitude
107.88987°
Altitude
482.692 km
Speed
7.626 km/s
True Right ascension
00h 29m 18s
True Declination
0° 00' 00"
Sunlit
Object was in daylight at epoch
Visualization orbit readout
Latitude
Unknown
Longitude
Unknown
Altitude
Unknown
Speed
Unknown
Apparent Right ascension
Unknown
Apparent Declination
Unknown
Sunlit
N/A
Visualization observer readout
Local Sidereal Time
22:09:12
Azimuth
Unknown
Elevation
Unknown
Doppler factor
Unknown
Orbital elements
Apogee altitude
486.091 km
Perigee altitude
483.965 km
Semi-major axis
6,863.165 km
Eccentricity
0.00015
Inclination
43.0037°
RAAN
7.3252°
Arg. of periapsis
279.134°
True anomaly
80.95113°
Mean anomaly
80.9336°
Eccentric anomaly
80.94236°
Mean motion
3.8173 °/min
Orbital period
94.31 mins
BSTAR
0.00027598
Loading maneuver chart data...
Computing Atmospheric mass density...
Loading historical data...
Loading historical data...
Loading historical data...
Loading historical data...
Loading historical data...
Loading historical data...
Loading historical data...

Documentation

Showing up to 5 results
|